Location: Easthampton
(42.2676°N, 72.6690°W)
Time: 14:56:37
(UTC+00:00)

Gurwin Techsat 1B - Pass Details

Date: 31 March 2023
Orbit: 811 x 813 km, 98.9° (Epoch: 02 June)

Event Time Altitude Azimuth Distance (km) Brightness Sun altitude
Rises 07:28:50 0° 17° (NNE) 3,347 12.6 -32.0°
Reaches altitude 10° 07:31:14 10° 22° (NNE) 2,411 11.8 -31.7°
Enters shadow 07:36:03 57° 79° (E) 960 9.1 -31.0°
